Oxford, MS

2:46 PM CDT on June 23, 2017 (GMT -0500)
University-Oxford

Weather History for KUOX - February, 2013

Change the Weather History Date:

Saturday, February 9, 2013

  Actual Average Record
Temperature  
Mean Temperature 40 °F -  
Max Temperature 53 °F 49 °F 80 °F (1957)
Min Temperature 26 °F 25 °F -2 °F (1971)
Degree Days  
Heating Degree Days 26    
Moisture  
Dew Point 30 °F    
Average Humidity 70    
Maximum Humidity 100    
Minimum Humidity 41    
Precipitation  
Precipitation 0.00 in - - ()
Sea Level Pressure  
Sea Level Pressure 30.24 in    
Wind  
Wind Speed 3 mph (ESE)    
Max Wind Speed 8 mph    
Max Gust Speed -    
Visibility 7 miles    
Events      
Averages and records for this station are not official NWS values.
T = Trace of Precipitation, MM = Missing Value Source: NWS Daily Summary

Daily Weather History Graph

Daily Weather History Graph

Search for Another Location

Airport or City:

Trip Planner

Search our weather history database for the weather conditions in past years. The results will help you decide how hot, cold, wet, or windy it might be!

Date:

Astronomy

Feb. 09, 2013 Rise Set
Actual Time 6:48 AM CST 5:36 PM CST
Civil Twilight 6:23 AM CST 6:02 PM CST
Nautical Twilight 5:53 AM CST 6:31 PM CST
Astronomical Twilight 5:24 AM CST 7:01 PM CST
Moon 6:01 AM CST (2/9) 5:17 PM CST (2/9)
Length of Visible Light 11h 39m
Length of Day
10h 47m
Waning Crescent, 0% of the Moon is Illuminated
Feb 9
Waning Crescent
Feb 10
New
Feb 17
First Quarter
Feb 25
Full
Mar 4
Last Quarter

Hourly Weather History & Observations

Time (CST) Temp. Windchill Dew Point Humidity Pressure Visibility Wind Dir Wind Speed Gust Speed Precip Events Conditions
12:15 AM 30.2 °F - 28.4 °F 93% 30.29 in 5.0 mi Calm Calm - N/A   Clear
12:35 AM 30.2 °F - 28.4 °F 93% 30.29 in 4.0 mi Calm Calm - N/A   Clear
12:55 AM 28.4 °F 24.6 °F 28.4 °F 100% 30.28 in 3.0 mi ENE 3.5 mph - N/A   Clear
1:15 AM 30.2 °F 26.7 °F 28.4 °F 93% 30.28 in 5.0 mi ENE 3.5 mph - N/A   Clear
1:35 AM 30.2 °F - 28.4 °F 93% 30.28 in 4.0 mi Calm Calm - N/A   Clear
1:55 AM 30.2 °F 25.4 °F 28.4 °F 93% 30.28 in 5.0 mi ENE 4.6 mph - N/A   Clear
2:15 AM 28.4 °F - 28.4 °F 100% 30.29 in 4.0 mi Calm Calm - N/A   Clear
2:35 AM 28.4 °F - 28.4 °F 100% 30.30 in 4.0 mi Calm Calm - N/A   Clear
2:55 AM 28.4 °F - 26.6 °F 93% 30.30 in 3.0 mi Calm Calm - N/A   Clear
3:15 AM 26.6 °F - 26.6 °F 100% 30.29 in 3.0 mi Calm Calm - N/A   Clear
3:35 AM 28.4 °F - 26.6 °F 93% 30.29 in 4.0 mi Calm Calm - N/A   Clear
3:55 AM 26.6 °F 21.2 °F 24.8 °F 93% 30.29 in 4.0 mi ENE 4.6 mph - N/A   Clear
4:15 AM 26.6 °F - 26.6 °F 100% 30.30 in 4.0 mi Calm Calm - N/A   Clear
4:35 AM 26.6 °F - 24.8 °F 93% 30.31 in 4.0 mi Calm Calm - N/A   Clear
4:55 AM 26.6 °F - 24.8 °F 93% 30.32 in 4.0 mi Calm Calm - N/A   Clear
5:15 AM 26.6 °F - 24.8 °F 93% 30.31 in 3.0 mi Calm Calm - N/A   Clear
5:35 AM 26.6 °F - 26.6 °F 100% 30.31 in 3.0 mi Calm Calm - N/A   Clear
5:55 AM 26.6 °F 21.2 °F 26.6 °F 100% 30.31 in 4.0 mi East 4.6 mph - N/A   Clear
6:15 AM 28.4 °F 22.2 °F 26.6 °F 93% 30.30 in 4.0 mi ENE 5.8 mph - N/A   Clear
6:35 AM 28.4 °F 24.6 °F 26.6 °F 93% 30.31 in 5.0 mi ENE 3.5 mph - N/A   Clear
6:55 AM 28.4 °F 23.3 °F 26.6 °F 93% 30.31 in 4.0 mi East 4.6 mph - N/A   Clear
7:15 AM 28.4 °F 20.4 °F 28.4 °F 100% 30.30 in 5.0 mi East 8.1 mph - N/A   Clear
7:55 AM 32.0 °F 25.6 °F 28.4 °F 87% 30.31 in 5.0 mi ENE 6.9 mph - N/A   Clear
8:15 AM 32.0 °F 24.8 °F 30.2 °F 93% 30.32 in 6.0 mi ENE 8.1 mph - N/A   Clear
8:35 AM 33.8 °F 27.0 °F 32.0 °F 93% 30.31 in 6.0 mi East 8.1 mph - N/A   Clear
8:55 AM 35.6 °F 30.7 °F 30.2 °F 81% 30.32 in 7.0 mi East 5.8 mph - N/A   Clear
9:15 AM 35.6 °F 30.7 °F 30.2 °F 81% 30.32 in 7.0 mi East 5.8 mph - N/A   Clear
9:35 AM 37.4 °F 32.8 °F 32.0 °F 81% 30.31 in 7.0 mi ESE 5.8 mph - N/A   Clear
9:55 AM 39.2 °F 34.2 °F 32.0 °F 75% 30.31 in 7.0 mi East 6.9 mph - N/A   Clear
10:15 AM 41.0 °F 35.8 °F 32.0 °F 70% 30.32 in 7.0 mi East 8.1 mph - N/A   Clear
10:35 AM 41.0 °F 39.0 °F 32.0 °F 70% 30.31 in 8.0 mi ESE 3.5 mph - N/A   Clear
10:55 AM 42.8 °F 41.1 °F 32.0 °F 66% 30.30 in 8.0 mi East 3.5 mph - N/A   Clear
11:15 AM 44.6 °F 41.4 °F 32.0 °F 61% 30.29 in 9.0 mi East 5.8 mph - N/A   Clear
11:35 AM 46.4 °F 44.3 °F 32.0 °F 57% 30.27 in 9.0 mi ESE 4.6 mph - N/A   Clear
11:55 AM 48.2 °F - 32.0 °F 54% 30.27 in 8.0 mi Calm Calm - N/A   Clear
12:15 PM 50.0 °F - 32.0 °F 50% 30.25 in 7.0 mi East 3.5 mph - N/A   Clear
12:35 PM 50.0 °F - 32.0 °F 50% 30.24 in 8.0 mi Calm Calm - N/A   Clear
12:55 PM 51.8 °F - 32.0 °F 47% 30.22 in 8.0 mi ESE 3.5 mph - N/A   Clear
1:15 PM 53.6 °F - 30.2 °F 41% 30.21 in 9.0 mi ESE 3.5 mph - N/A   Clear
1:35 PM 51.8 °F - 30.2 °F 44% 30.20 in 9.0 mi ESE 4.6 mph - N/A   Clear
1:55 PM 53.6 °F - 32.0 °F 44% 30.19 in 9.0 mi ESE 4.6 mph - N/A   Clear
2:15 PM 53.6 °F - 32.0 °F 44% 30.18 in 9.0 mi SSE 4.6 mph - N/A   Clear
2:35 PM 53.6 °F - 32.0 °F 44% 30.18 in 8.0 mi ESE 4.6 mph - N/A   Clear
2:55 PM 53.6 °F - 30.2 °F 41% 30.17 in 9.0 mi ESE 5.8 mph - N/A   Clear
3:15 PM 53.6 °F - 30.2 °F 41% 30.17 in 9.0 mi Calm Calm - N/A   Clear
3:35 PM 53.6 °F - 30.2 °F 41% 30.17 in 9.0 mi Calm Calm - N/A   Clear
4:35 PM 53.6 °F - 30.2 °F 41% 30.15 in 9.0 mi SE 3.5 mph - N/A   Clear
4:55 PM 51.8 °F - 30.2 °F 44% 30.14 in 9.0 mi SE 3.5 mph - N/A   Clear
5:15 PM 50.0 °F - 32.0 °F 50% 30.13 in 8.0 mi SE 3.5 mph - N/A   Clear
5:35 PM 50.0 °F - 32.0 °F 50% 30.12 in 9.0 mi ESE 3.5 mph - N/A   Clear
5:55 PM 50.0 °F - 32.0 °F 50% 30.13 in 10.0 mi SE 3.5 mph - N/A   Clear
8:35 PM 50.0 °F - 32.0 °F 50% 30.12 in 10.0 mi SE 3.5 mph - N/A   Partly Cloudy
8:55 PM 50.0 °F - 32.0 °F 50% 30.12 in 10.0 mi SSE 3.5 mph - N/A   Scattered Clouds
9:15 PM 50.0 °F - 32.0 °F 50% 30.13 in 10.0 mi South 3.5 mph - N/A   Mostly Cloudy
9:35 PM 50.0 °F - 32.0 °F 50% 30.11 in 10.0 mi South 4.6 mph - N/A   Scattered Clouds
9:55 PM 50.0 °F - 32.0 °F 50% 30.12 in 10.0 mi South 4.6 mph - N/A   Scattered Clouds
10:15 PM 50.0 °F - 32.0 °F 50% 30.12 in 10.0 mi SSE 4.6 mph - N/A   Mostly Cloudy
10:35 PM 50.0 °F - 32.0 °F 50% 30.12 in 10.0 mi SSE 3.5 mph - N/A   Mostly Cloudy
10:55 PM 50.0 °F - 32.0 °F 50% 30.09 in 10.0 mi SE 4.6 mph - N/A   Partly Cloudy
11:15 PM 50.0 °F - 32.0 °F 50% 30.09 in 10.0 mi SE 3.5 mph - N/A   Partly Cloudy
11:55 PM 50.0 °F - 32.0 °F 50% 30.08 in 10.0 mi SSE 4.6 mph - N/A   Mostly Cloudy